CW4132 Weather Reports


time (UTC)temp
F
wind
direction
speed
knots
gust
knots
rain 1hr
in
rain 24hr
in
rain mn
in
humidity
%
barometer
mb
20260508010030 55 57 0.0 0.0 0.00 0.45 0.44 91 1012.8
20260508004513 55 57 0.0 0.0 0.00 0.45 0.44 91 1012.5
20260508003056 55 57 0.0 0.0 0.00 0.45 0.44 91 1012.5
20260508001544 55 57 0.0 0.0 0.00 0.45 0.44 90 1012.4
20260508000030 55 57 0.0 0.0 0.00 0.45 0.44 90 1012.4
20260507234519 55 57 0.0 0.0 0.00 0.45 0.44 90 1012.1
20260507233056 56 57 0.0 0.0 0.00 0.45 0.44 90 1011.5
20260507233008 56 57 0.0 0.0 0.00 0.45 0.44 90 1011.6
20260507231548 56 57 0.0 0.0 0.00 0.45 0.44 90 1011.3
20260507230036 56 57 0.0 0.0 0.00 0.45 0.44 90 1011.4
20260507224518 56 57 0.0 0.0 0.00 0.45 0.44 89 1011.3
20260507223013 56 57 0.0 0.0 0.00 0.45 0.44 90 1011.6
20260507221554 56 57 0.0 0.0 0.00 0.45 0.44 89 1011.7
20260507220044 56 57 0.0 0.0 0.00 0.45 0.44 90 1011.4
20260507214536 56 57 0.0 0.0 0.00 0.45 0.44 90 1011.3
20260507213016 56 57 0.0 0.0 0.00 0.45 0.44 90 1011.2
20260507211615 56 57 0.0 0.0 0.00 0.45 0.44 90 1011.2
20260507211504 56 57 0.0 0.0 0.00 0.45 0.44 90 1011.1
20260507210044 56 57 0.0 0.0 0.00 0.45 0.44 90 1011.3
20260507204533 56 57 0.0 0.0 0.00 0.45 0.44 90 1010.8
20260507203023 56 57 0.0 0.0 0.00 0.45 0.44 91 1010.9
20260507201505 55 57 0.0 0.0 0.00 0.45 0.44 91 1010.8
20260507200107 55 57 0.0 0.0 0.00 0.45 0.44 92 1011.1
20260507194544 55 57 0.0 0.0 0.00 0.47 0.44 92 1011.1
20260507193032 55 57 0.0 0.0 0.00 0.47 0.44 92 1011.4
20260507191518 56 57 0.0 0.0 0.00 0.47 0.44 92 1010.7
20260507190005 56 63 0.0 0.0 0.00 0.47 0.44 93 1010.3
20260507184547 56 57 0.0 0.0 0.00 0.52 0.44 92 1010.5
20260507183033 57 61 0.0 0.0 0.00 0.52 0.44 93 1010.3
20260507181528 57 61 0.0 0.0 0.00 0.52 0.44 93 1010.5
20260507180059 57 61 0.0 0.0 0.02 0.52 0.44 93 1010.1
20260507180002 57 60 0.0 0.0 0.02 0.52 0.44 93 1010.1
20260507174550 57 61 0.0 0.0 0.02 0.52 0.44 93 1011.3
20260507173032 58 61 0.0 0.0 0.02 0.52 0.44 92 1010.6
20260507171510 58 58 0.0 0.0 0.03 0.52 0.44 92 1010.0
20260507170100 59 58 0.0 0.0 0.01 0.50 0.42 92 1010.5
20260507164542 60 57 0.0 0.0 0.02 0.50 0.42 92 1010.4
20260507163017 62 57 0.0 0.0 0.03 0.50 0.42 92 1011.1
20260507161555 66 60 0.0 0.0 0.03 0.49 0.41 93 1010.6
20260507160043 67 276 0.0 0.0 0.05 0.49 0.41 94 1010.6
20260507154530 67 276 0.0 0.0 0.07 0.48 0.40 93 1010.1
20260507153013 67 276 0.0 0.0 0.08 0.47 0.39 94 1010.5
20260507151555 67 276 0.0 0.0 0.08 0.46 0.38 94 1010.4
20260507151501 67 276 0.0 0.0 0.08 0.46 0.38 94 1010.5
20260507150043 67 276 0.0 0.0 0.08 0.44 0.36 93 1010.7
20260507144534 68 276 0.0 0.0 0.07 0.41 0.33 94 1010.4
20260507143020 68 276 0.0 0.0 0.05 0.39 0.31 94 1010.5
20260507141505 68 276 0.0 0.0 0.04 0.38 0.30 94 1010.6
20260507140050 67 276 0.0 0.0 0.05 0.36 0.28 94 1010.8
20260507134541 67 276 0.0 0.0 0.03 0.34 0.26 94 1011.0
20260507133032 67 270 0.0 0.0 0.03 0.34 0.26 94 1010.7
20260507131513 67 282 0.0 0.0 0.02 0.33 0.26 94 1010.6
20260507130108 67 240 0.0 0.0 0.01 0.31 0.23 94 1010.9
20260507130001 66 239 0.0 0.0 0.01 0.31 0.23 94 1010.8
20260507124542 66 240 0.0 0.0 0.01 0.31 0.23 94 1010.8
20260507123032 66 239 0.0 0.0 0.03 0.31 0.23 94 1010.9
20260507121515 66 239 0.0 0.0 0.09 0.31 0.23 93 1011.1
20260507120105 66 240 0.0 0.0 0.09 0.30 0.22 93 1010.9
20260507120004 66 239 0.0 0.0 0.09 0.30 0.22 93 1010.8
20260507114624 66 239 0.0 0.0 0.11 0.30 0.22 93 1011.4
20260507113031 66 239 0.0 0.0 0.10 0.28 0.20 93 1011.4
20260507111518 66 239 0.0 0.0 0.04 0.22 0.14 93 1011.4
20260507110005 66 240 0.0 0.0 0.03 0.21 0.13 93 1011.1
20260507104547 66 240 0.0 0.0 0.01 0.19 0.11 93 1011.0
20260507103037 66 240 0.0 0.0 0.00 0.18 0.10 93 1010.9
20260507101523 66 239 0.0 0.0 0.00 0.18 0.10 93 1010.9
20260507100010 66 240 0.0 0.0 0.00 0.18 0.10 93 1011.0
20260507094552 66 239 0.0 0.0 0.00 0.18 0.10 93 1011.1
20260507093041 65 239 0.0 0.0 0.00 0.18 0.10 93 1010.9
20260507091600 65 240 0.0 0.0 0.00 0.18 0.10 93 1011.0
20260507090041 65 240 0.0 0.0 0.00 0.18 0.10 93 1011.1
20260507084517 65 240 0.0 0.0 0.00 0.18 0.10 93 1011.1
20260507083058 65 240 0.0 0.0 0.00 0.18 0.10 93 1011.5
20260507081543 65 240 0.0 0.0 0.00 0.18 0.10 93 1011.3
20260507080017 65 240 0.0 0.0 0.00 0.18 0.10 92 1011.7
20260507074554 65 240 0.0 0.0 0.00 0.18 0.10 92 1011.9
20260507073034 65 240 0.0 0.0 0.00 0.18 0.10 92 1012.0
20260507071513 65 239 0.0 0.0 0.00 0.18 0.10 92 1012.0
20260507070049 65 240 0.0 0.0 0.00 0.18 0.10 92 1011.8
20260507064530 66 240 0.0 0.0 0.01 0.18 0.10 92 1012.7
20260507063009 66 240 0.0 0.0 0.03 0.18 0.10 92 1012.5
20260507061550 66 240 0.0 0.0 0.04 0.18 0.10 92 1012.7
20260507060029 66 240 0.0 0.0 0.05 0.18 0.10 91 1012.5
20260507054516 66 240 0.0 0.0 0.08 0.17 0.09 91 1012.8
20260507053045 67 240 0.0 0.0 0.06 0.15 0.07 90 1012.5
20260507051524 67 239 0.0 0.0 0.05 0.14 0.06 89 1013.1
20260507050001 68 235 0.0 0.0 0.05 0.13 0.05 88 1012.0
20260507044536 68 251 0.0 0.0 0.02 0.10 0.02 88 1013.5
20260507043022 67 232 0.0 0.0 0.01 0.09 0.01 89 1014.2
20260507041554 67 232 0.0 0.0 0.02 0.09 0.01 89 1013.9
20260507040027 68 232 0.0 0.0 0.01 0.08 0.00 89 1013.4
20260507034505 68 232 0.0 0.0 0.01 0.08 0.08 88 1013.1
20260507033050 68 232 0.0 0.0 0.00 0.07 0.07 87 1013.3
20260507031528 68 232 0.0 0.0 0.00 0.07 0.07 87 1013.1
20260507030010 68 232 0.0 0.0 0.00 0.07 0.07 88 1012.9
20260507024603 68 232 0.0 0.0 0.00 0.07 0.07 87 1012.8
20260507023027 68 232 0.0 0.0 0.00 0.07 0.07 86 1012.7
20260507021508 68 232 0.0 0.0 0.00 0.07 0.07 86 1012.6
20260507020106 68 232 0.0 0.0 0.00 0.07 0.07 86 1012.8
20260507014531 68 232 0.0 0.0 0.00 0.07 0.07 85 1012.6
20260507013020 68 232 0.0 0.0 0.00 0.07 0.07 85 1012.8
20260507011554 69 232 0.0 0.0 0.00 0.07 0.07 84 1012.6